Hourly Weather Accrington

Today, 7 March, Sunday

Time Temperature Precipitation Wind Pressure Humidity
00:00 -1°C° 0 mm 0 mps 757 mmHg 78%
01:00 0°C° 0 mm 1 mps 757 mmHg 78%
02:00 0°C° 0 mm 1 mps 756 mmHg 79%
03:00 0°C° 0 mm 1 mps 756 mmHg 79%
04:00 0°C° 0 mm 1 mps 755 mmHg 80%
05:00 0°C° 0 mm 1 mps 755 mmHg 81%
06:00 +1°C° 0 mm 1 mps 755 mmHg 85%
07:00 +2°C° 0 mm 1 mps 755 mmHg 82%
08:00 +2°C° 0 mm 2 mps 755 mmHg 79%
09:00 +3°C° 0 mm 2 mps 755 mmHg 76%
10:00 +4°C° 0 mm 2 mps 755 mmHg 73%
11:00 +5°C° 0 mm 2 mps 755 mmHg 71%
12:00 +5°C° 0 mm 3 mps 754 mmHg 71%
13:00 +5°C° 0 mm 3 mps 754 mmHg 72%
14:00 +5°C° 0 mm 3 mps 753 mmHg 73%
15:00 +5°C° 0 mm 3 mps 753 mmHg 74%
16:00 +4°C° 0 mm 3 mps 753 mmHg 79%
17:00 +4°C° 0 mm 2 mps 753 mmHg 84%
18:00 +3°C° 0 mm 2 mps 753 mmHg 89%
19:00 +3°C° 0 mm 1 mps 753 mmHg 90%
20:00 +3°C° 0 mm 1 mps 753 mmHg 91%
21:00 +2°C° 0 mm 1 mps 753 mmHg 92%
22:00 +2°C° 0 mm 1 mps 753 mmHg 92%
23:00 +2°C° 0 mm 1 mps 753 mmHg 93%

Tomorrow, 8 March, Monday

Time Temperature Precipitation Wind Pressure Humidity
00:00 +2°C° 0 mm 1 mps 753 mmHg 93%
01:00 +2°C° 0 mm 1 mps 752 mmHg 93%
02:00 +2°C° 0 mm 1 mps 752 mmHg 93%
03:00 +1°C° 0 mm 2 mps 752 mmHg 93%
04:00 +2°C° 0.1 mm 2 mps 752 mmHg 93%
05:00 +2°C° 0.1 mm 2 mps 751 mmHg 92%
06:00 +2°C° 0.1 mm 2 mps 751 mmHg 91%
07:00 +1°C° 0.3 mm 3 mps 751 mmHg 90%
08:00 +2°C° 0.3 mm 3 mps 751 mmHg 88%
09:00 +2°C° 0.3 mm 3 mps 751 mmHg 87%
10:00 +3°C° 0.2 mm 4 mps 751 mmHg 87%
11:00 +3°C° 0.2 mm 4 mps 751 mmHg 87%
12:00 +4°C° 0.2 mm 4 mps 751 mmHg 88%
13:00 +4°C° 0 mm 4 mps 751 mmHg 87%
14:00 +5°C° 0 mm 5 mps 751 mmHg 87%
15:00 +5°C° 0 mm 5 mps 750 mmHg 87%
16:00 +4°C° 0 mm 4 mps 750 mmHg 88%
17:00 +4°C° 0 mm 4 mps 750 mmHg 89%
18:00 +3°C° 0 mm 3 mps 750 mmHg 90%
19:00 +3°C° 0 mm 3 mps 750 mmHg 91%
20:00 +3°C° 0 mm 2 mps 750 mmHg 92%
21:00 +3°C° 0 mm 2 mps 750 mmHg 93%
22:00 +2°C° 0 mm 2 mps 750 mmHg 93%
23:00 +2°C° 0 mm 2 mps 750 mmHg 93%

Day after tomorrow, 9 March, Tuesday

Time Temperature Precipitation Wind Pressure Humidity
00:00 +2°C° 0 mm 2 mps 750 mmHg 93%
01:00 +2°C° 0 mm 2 mps 749 mmHg 93%
02:00 +2°C° 0 mm 2 mps 749 mmHg 93%
03:00 +2°C° 0 mm 2 mps 749 mmHg 93%
04:00 +2°C° 0 mm 2 mps 748 mmHg 93%
05:00 +1°C° 0 mm 2 mps 748 mmHg 93%
06:00 +1°C° 0 mm 2 mps 748 mmHg 93%
07:00 +2°C° 0 mm 2 mps 748 mmHg 91%
08:00 +3°C° 0 mm 2 mps 748 mmHg 90%
09:00 +4°C° 0 mm 2 mps 748 mmHg 88%
10:00 +4°C° 0 mm 2 mps 747 mmHg 88%
11:00 +5°C° 0 mm 2 mps 747 mmHg 87%
12:00 +4°C° 0 mm 3 mps 747 mmHg 86%
13:00 +5°C° 0 mm 3 mps 746 mmHg 84%
14:00 +6°C° 0 mm 4 mps 746 mmHg 81%
15:00 +7°C° 0 mm 4 mps 745 mmHg 78%
16:00 +7°C° 0 mm 4 mps 745 mmHg 80%
17:00 +6°C° 0 mm 4 mps 744 mmHg 81%
18:00 +5°C° 0 mm 4 mps 744 mmHg 82%
19:00 +5°C° 0.2 mm 5 mps 743 mmHg 83%
20:00 +3°C° 0.2 mm 6 mps 743 mmHg 84%
21:00 +3°C° 0.2 mm 7 mps 743 mmHg 85%
22:00 +3°C° 0.5 mm 7 mps 742 mmHg 86%
23:00 +2°C° 0.5 mm 8 mps 741 mmHg 88%

10 March, Wednesday

Time Temperature Precipitation Wind Pressure Humidity
00:00 +2°C° 0.5 mm 8 mps 740 mmHg 89%
01:00 +2°C° 0.3 mm 8 mps 740 mmHg 88%
02:00 +2°C° 0.3 mm 8 mps 739 mmHg 88%
03:00 +2°C° 0.3 mm 8 mps 738 mmHg 88%
04:00 +4°C° 0.2 mm 7 mps 738 mmHg 89%
05:00 +4°C° 0.2 mm 7 mps 737 mmHg 90%
06:00 +5°C° 0.2 mm 6 mps 737 mmHg 91%
07:00 +6°C° 0.1 mm 5 mps 736 mmHg 92%
08:00 +6°C° 0.1 mm 5 mps 736 mmHg 93%
09:00 +6°C° 0.1 mm 4 mps 736 mmHg 95%
10:00 +7°C° 0.2 mm 4 mps 735 mmHg 95%
11:00 +7°C° 0.2 mm 4 mps 735 mmHg 95%
12:00 +8°C° 0.2 mm 4 mps 734 mmHg 95%
13:00 +8°C° 1.3 mm 5 mps 733 mmHg 94%
14:00 +9°C° 1.3 mm 6 mps 731 mmHg 94%
15:00 +9°C° 1.3 mm 7 mps 730 mmHg 93%
16:00 +9°C° 0.4 mm 8 mps 729 mmHg 92%
17:00 +9°C° 0.4 mm 8 mps 728 mmHg 91%
18:00 +10°C° 0.4 mm 8 mps 727 mmHg 90%
19:00 +8°C° 0.1 mm 9 mps 727 mmHg 87%
20:00 +8°C° 0.1 mm 10 mps 726 mmHg 84%
21:00 +8°C° 0.1 mm 11 mps 726 mmHg 81%
22:00 +7°C° 0.1 mm 12 mps 726 mmHg 79%
23:00 +5°C° 0.1 mm 12 mps 725 mmHg 76%

11 March, Thursday

Time Temperature Precipitation Wind Pressure Humidity
00:00 +4°C° 0.1 mm 13 mps 725 mmHg 74%
01:00 +4°C° 0 mm 13 mps 724 mmHg 73%
02:00 +4°C° 0 mm 13 mps 723 mmHg 72%
03:00 +4°C° 0 mm 14 mps 722 mmHg 72%
04:00 +4°C° 1.3 mm 13 mps 723 mmHg 77%
05:00 +3°C° 1.3 mm 13 mps 723 mmHg 81%
06:00 +3°C° 1.3 mm 12 mps 724 mmHg 86%
07:00 +3°C° 0.4 mm 12 mps 725 mmHg 84%
08:00 +3°C° 0.4 mm 12 mps 727 mmHg 83%
09:00 +2°C° 0.4 mm 11 mps 728 mmHg 81%
10:00 +3°C° 0.3 mm 12 mps 728 mmHg 79%
11:00 +3°C° 0.3 mm 12 mps 729 mmHg 77%
12:00 +3°C° 0.3 mm 12 mps 729 mmHg 75%
13:00 +3°C° 0.4 mm 12 mps 730 mmHg 72%
14:00 +3°C° 0.4 mm 12 mps 730 mmHg 69%
15:00 +3°C° 0.4 mm 12 mps 730 mmHg 66%
16:00 +3°C° 0.4 mm 11 mps 730 mmHg 68%
17:00 +2°C° 0.4 mm 11 mps 731 mmHg 70%
18:00 +2°C° 0.4 mm 10 mps 731 mmHg 72%
19:00 +1°C° 0.2 mm 10 mps 732 mmHg 72%
20:00 +1°C° 0.2 mm 9 mps 733 mmHg 72%
21:00 +1°C° 0.2 mm 9 mps 734 mmHg 73%
22:00 +1°C° 0.1 mm 9 mps 734 mmHg 74%
23:00 +1°C° 0.1 mm 9 mps 734 mmHg 75%

12 March, Friday

Time Temperature Precipitation Wind Pressure Humidity
00:00 +1°C° 0.1 mm 9 mps 735 mmHg 76%
01:00 +1°C° 0.1 mm 9 mps 734 mmHg 79%
02:00 +1°C° 0.1 mm 9 mps 734 mmHg 81%
03:00 +1°C° 0.1 mm 9 mps 734 mmHg 84%
04:00 +1°C° 0.1 mm 8 mps 734 mmHg 84%
05:00 +2°C° 0.1 mm 7 mps 733 mmHg 84%
06:00 +2°C° 0.1 mm 6 mps 733 mmHg 83%
07:00 +1°C° 0.7 mm 8 mps 732 mmHg 81%
08:00 +1°C° 0.7 mm 9 mps 732 mmHg 79%
09:00 +2°C° 0.7 mm 10 mps 732 mmHg 76%
10:00 +2°C° 0.3 mm 10 mps 732 mmHg 73%
11:00 +2°C° 0.3 mm 11 mps 732 mmHg 71%
12:00 +3°C° 0.3 mm 11 mps 733 mmHg 68%
13:00 +3°C° 0.2 mm 11 mps 733 mmHg 67%
14:00 +3°C° 0.2 mm 10 mps 732 mmHg 66%
15:00 +3°C° 0.2 mm 10 mps 732 mmHg 66%
16:00 +3°C° 0.2 mm 9 mps 732 mmHg 69%
17:00 +2°C° 0.2 mm 8 mps 732 mmHg 72%
18:00 +1°C° 0.2 mm 8 mps 732 mmHg 75%
19:00 +2°C° 0.1 mm 7 mps 732 mmHg 78%
20:00 +2°C° 0.1 mm 6 mps 732 mmHg 81%
21:00 +1°C° 0.1 mm 5 mps 732 mmHg 84%
22:00 +1°C° 0.2 mm 5 mps 732 mmHg 84%
23:00 +1°C° 0.2 mm 5 mps 732 mmHg 85%
Show more